Regional Weather Roundup
Issued by NWS

Home | Current Version | Previous Version | Graphics & Text | Print | Product List | Glossary On
Versions: 1 2 3 4 5 6 7 8 9 10 11 12 13 14 15 16 17 18 19 20 21 22 23 24 25 26 27 28 29 30 31 32 33 34 35 36 37 38 39 40 41 42 43 44 45 46 47 48 49 50
000
ASUS43 KFSD 222210
RWRSD

WEATHER ROUNDUP FOR SOUTH DAKOTA
NATIONAL WEATHER SERVICE SIOUX FALLS SD
500 PM CDT MON SEP 22 2014

NOTE: "FAIR" INDICATES FEW OR NO CLOUDS BELOW 12,000 FEET WITH NO
SIGNIFICANT WEATHER AND/OR OBSTRUCTIONS TO VISIBILITY.


SDZ001>005-009-010-012>017-222300-
NORTHWEST AND NORTH CENTRAL SOUTH DAKOTA

CITY           SKY/WX    TMP DP  RH WIND       PRES   REMARKS
BUFFALO          N/A     81  49  32 SE13G20   29.85F
FAITH            N/A     80  51  36 S23G32    29.90F
MOBRIDGE       MOSUNNY   81  51  35 SE20G28   29.95F
$$

SDZ012>016-024>037-041>051-057-063-072>074-222300-
SOUTHWEST AND SOUTH CENTRAL SOUTH DAKOTA

CITY           SKY/WX    TMP DP  RH WIND       PRES   REMARKS
RAPID CTY ARPT CLOUDY    75  49  39 S21G28    29.93F
PIERRE         MOSUNNY   80  46  30 S22G33    29.97F
CUSTER         CLOUDY    67  45  45 SW7       30.07F
PINE RIDGE     CLOUDY    69  54  58 S16G24    30.01F
WINNER         FAIR      76  46  34 S20G30    30.05F
$$

SDZ004>011-016>023-039-040-222300-
NORTHEAST SOUTH DAKOTA

CITY           SKY/WX    TMP DP  RH WIND       PRES   REMARKS
ABERDEEN       MOSUNNY   78  48  34 S17       30.05F
WATERTOWN      MOSUNNY   73  46  38 S13       30.13F
SISSETON         N/A     76  45  33 S8        30.09F
$$

SDZ017-020-022-023-036>040-048>070-222300-
SOUTHEAST SOUTH DAKOTA

CITY           SKY/WX    TMP DP  RH WIND       PRES   REMARKS
SIOUX FALLS    PTSUNNY   72  47  40 S8        30.15F
HURON          MOSUNNY   77  47  34 S13G23    30.08F
CHAMBERLAIN    MOSUNNY   75  49  39 S16G24    30.05F
MITCHELL       MOSUNNY   76  49  38 S15G22    30.11F
YANKTON        MOSUNNY   73  50  43 S10       30.14F
$$

ABBREVIATIONS USED IN REMARKS
   TC - TEMPERATURE IN CELSIUS
  WCI - WIND CHILL INDEX
   HX - HEAT INDEX
  VSB - VISIBILITY




USA.gov is the U.S. government's official web portal to all federal, state and local government web resources and services.